Location: *
(46.3500°N, 10.9000°E)
Time: 22:09:10
(UTC+00:00)

Explorer 7 - Pass Details

Date: 27 April 2021
Orbit: 484 x 677 km, 50.3° (Epoch: 05 May)

Event Time Altitude Azimuth Distance (km) Brightness Sun altitude
Rises 19:25:26 0° 281° (W) 2,633 11.7 -10.8°
Reaches altitude 10° 19:27:38 10° 287° (WNW) 1,772 10.7 -11.1°
Maximum altitude 19:31:33 48° 3° (N) 727 7.7 -11.6°
Drops below altitude 10° 19:35:42 10° 78° (ENE) 1,885 9.1 -12.2°
Enters shadow 19:36:01 - 80° (E) 2,001 9.3 -12.3°
Sets 19:38:07 0° 85° (E) 2,820 - -12.6°
